Volver al catálogo

DELTA 1 DEB

ActivoSSO
NORAD 21292·DEBRIS·🇺🇸 United States

Lanzado Jun 12, 1975 desde Vandenberg Space Force Base

Loading…

Próximos Pases (próximas 24 horas)

TLE

ActualizadoSource: Space-Track

Época: Sep 14, 2026, 11:34 UTC

1 21292U 75052AD  26257.48202812 -.00000006  00000-0  45918-4 0  9992
2 21292  99.7613 132.8109 0222345 214.0382 270.2052 13.58671502749562

Sigue DELTA 1 DEB en tiempo real con AllMySat

Download on the App Store